EA5ILC Weather Reports


time (UTC)temp
C
wind
direction
speed
KPH
gust
KPH
rain 1hr
cm
rain 24hr
cm
rain mn
cm
humidity
%
barometer
mb
20260502202516 16 81 1.6 3.2 0.00 0.00 0.00 90 1019.4
20260502201614 16 107 0.0 3.2 0.00 0.00 0.00 90 1019.3
20260502200612 16 141 1.6 6.4 0.00 0.00 0.00 91 1019.2
20260502195609 16 70 0.0 3.2 0.00 0.00 0.00 91 1019.0
20260502194606 16 77 0.0 3.2 0.00 0.00 0.00 91 1019.3
20260502193604 16 39 1.6 9.7 0.00 0.00 0.00 91 1019.2
20260502192601 16 288 1.6 6.4 0.00 0.00 0.00 91 1018.9
20260502191558 16 135 3.2 6.4 0.00 0.00 0.00 91 1019.0
20260502190556 16 247 0.0 3.2 0.00 0.00 0.00 91 1018.9
20260502185613 16 65 1.6 9.7 0.00 0.00 0.00 92 1019.0
20260502184550 16 108 1.6 3.2 0.00 0.00 0.00 93 1019.2
20260502183548 16 119 3.2 6.4 0.00 0.00 0.00 93 1019.1
20260502182545 16 115 3.2 9.7 0.00 0.00 0.00 93 1019.1
20260502181543 17 128 1.6 3.2 0.00 0.00 0.00 92 1019.3
20260502180540 17 96 1.6 3.2 0.00 0.00 0.00 91 1019.3
20260502163537 18 151 3.2 6.4 0.00 0.00 0.00 86 1020.0
20260502162614 18 109 3.2 9.7 0.00 0.00 0.00 86 1020.0
20260502161612 18 155 1.6 6.4 0.00 0.00 0.00 87 1020.1
20260502160609 18 341 3.2 6.4 0.00 0.00 0.00 86 1020.4
20260502151616 19 137 3.2 6.4 0.00 0.00 0.00 82 1020.4
20260502150553 18 322 3.2 6.4 0.00 0.00 0.00 83 1020.9
20260502130522 17 358 4.8 9.7 0.00 0.03 0.00 90 1021.8
20260502123615 17 352 6.4 12.9 0.00 0.03 0.00 90 1022.1
20260502122612 17 329 3.2 9.7 0.00 0.03 0.00 90 1022.2
20260502121609 17 302 3.2 9.7 0.00 0.03 0.00 90 1022.4
20260502120627 17 335 4.8 9.7 0.00 0.03 0.00 90 1022.4
20260502115644 17 355 4.8 11.3 0.00 0.03 0.00 90 1022.3
20260502114642 17 330 4.8 11.3 0.00 0.03 0.00 90 1022.3
20260502113559 17 350 3.2 9.7 0.00 0.03 0.00 90 1022.3
20260502112557 17 357 6.4 14.5 0.00 0.03 0.00 89 1022.4
20260502111554 17 346 4.8 11.3 0.00 0.03 0.00 89 1022.6
20260502110551 18 350 3.2 11.3 0.00 0.03 0.00 89 1022.7
20260502105548 18 304 3.2 12.9 0.00 0.03 0.00 87 1022.9
20260502104546 18 324 4.8 14.5 0.00 0.03 0.00 87 1022.9
20260502103543 18 330 4.8 11.3 0.00 0.03 0.00 86 1022.8
20260502102541 19 318 6.4 11.3 0.00 0.03 0.00 84 1022.8
20260502101538 19 11 4.8 17.7 0.00 0.03 0.00 83 1022.9
20260502100536 19 346 3.2 9.7 0.00 0.03 0.00 82 1022.8
20260502090611 19 345 3.2 11.3 0.00 0.03 0.00 79 1023.2
20260502071521 17 234 1.6 3.2 0.00 0.28 0.00 81 1023.3
20260502070539 17 270 0.0 3.2 0.00 0.28 0.00 81 1023.2
20260502065516 17 321 0.0 3.2 0.00 0.28 0.00 81 1023.2
20260502064634 17 90 0.0 3.2 0.00 0.28 0.00 81 1023.1
20260502063611 17 0.0 0.0 0.00 0.28 0.00 80 1023.2
20260502062608 17 0.0 0.0 0.00 0.28 0.00 83 1023.3
20260502061606 16 0.0 0.0 0.00 0.28 0.00 85 1023.2
20260502060604 16 0 1.6 3.2 0.00 0.28 0.00 85 1023.3
20260502055601 16 338 0.0 3.2 0.00 0.28 0.00 83 1023.2
20260502054558 16 0.0 0.0 0.00 0.28 0.00 83 1023.2
20260502053555 16 0.0 3.2 0.00 0.28 0.00 83 1023.2
20260502052553 16 0.0 3.2 0.00 0.28 0.00 83 1023.0
20260502051550 16 0.0 0.0 0.00 0.28 0.00 83 1022.8
20260502050548 16 338 0.0 3.2 0.00 0.28 0.00 82 1022.7
20260502045545 16 23 0.0 3.2 0.00 0.28 0.00 83 1022.7
20260502044543 16 0.0 0.0 0.00 0.28 0.00 83 1022.7
20260502043540 16 0.0 3.2 0.00 0.28 0.00 83 1022.8
20260502042537 16 0.0 3.2 0.00 0.28 0.00 83 1022.8
20260502041535 16 138 0.0 3.2 0.00 0.28 0.00 85 1022.9
20260502040532 16 0.0 3.2 0.00 0.28 0.00 88 1022.9
20260502035530 16 34 1.6 6.4 0.00 0.28 0.00 89 1023.0
20260502034527 16 12 3.2 9.7 0.00 0.28 0.00 89 1023.2
20260502033524 16 4 1.6 6.4 0.00 0.28 0.00 89 1023.4
20260502032521 16 353 1.6 6.4 0.00 0.28 0.00 87 1023.2
20260502031519 16 3 1.6 3.2 0.00 0.28 0.00 87 1023.2
20260502030517 16 45 0.0 3.2 0.00 0.28 0.00 88 1023.4
20260502025614 16 38 0.0 6.4 0.00 0.28 0.00 91 1023.3
20260502024611 16 22 0.0 3.2 0.00 0.28 0.00 91 1023.1
20260502023609 16 45 0.0 3.2 0.00 0.28 0.00 90 1023.1
20260502022607 16 0.0 3.2 0.00 0.28 0.00 90 1023.2
20260502021624 16 297 0.0 3.2 0.00 0.28 0.00 91 1023.3
20260502020601 16 68 0.0 3.2 0.00 0.28 0.00 90 1023.4
20260502015558 15 90 0.0 6.4 0.00 0.28 0.00 91 1023.4
20260502014556 15 101 0.0 3.2 0.00 0.28 0.00 94 1023.5
20260502013553 15 0.0 0.0 0.00 0.28 0.00 95 1023.4
20260502012550 15 0.0 0.0 0.00 0.28 0.00 96 1023.6
20260502011548 15 0.0 0.0 0.00 0.28 0.00 96 1023.7
20260502010546 15 0.0 0.0 0.00 0.28 0.00 96 1023.8
20260502005543 15 0.0 0.0 0.00 0.33 0.00 96 1023.9
20260502004540 15 0.0 0.0 0.00 0.33 0.00 95 1024.0
20260502003558 15 0.0 0.0 0.00 0.33 0.00 95 1024.0
20260502002535 15 0.0 0.0 0.00 0.33 0.00 95 1024.3
20260502001532 15 0.0 0.0 0.00 0.33 0.00 95 1024.2
20260502000550 15 0.0 0.0 0.00 0.33 0.00 95 1024.5
20260501235527 15 0.0 0.0 0.00 0.33 0.00 95 1024.5
20260501234525 15 135 0.0 3.2 0.00 0.33 0.00 95 1024.5
20260501233542 15 135 0.0 3.2 0.00 0.33 0.00 95 1024.5
20260501232519 15 105 1.6 3.2 0.00 0.33 0.00 96 1024.5
20260501231517 15 113 1.6 3.2 0.00 0.33 0.00 96 1024.5
20260501230614 15 0.0 0.0 0.00 0.33 0.00 96 1024.6
20260501225612 15 0.0 0.0 0.00 0.33 0.00 96 1024.6
20260501224629 15 0.0 0.0 0.00 0.33 0.00 96 1024.5
20260501223606 15 0.0 0.0 0.00 0.33 0.00 96 1024.6
20260501222604 15 0.0 0.0 0.00 0.33 0.00 96 1024.6
20260501221641 15 0.0 0.0 0.00 0.33 0.00 96 1024.6
20260501220558 15 0.0 0.0 0.00 0.33 0.00 96 1024.6
20260501215556 15 0.0 0.0 0.00 0.33 0.33 96 1024.7
20260501214553 15 0.0 0.0 0.00 0.33 0.33 96 1024.8
20260501213611 16 0.0 0.0 0.00 0.33 0.33 96 1024.8
20260501212608 16 0.0 0.0 0.00 0.33 0.33 96 1024.8
20260501211545 16 0.0 0.0 0.00 0.33 0.33 96 1024.7
20260501210543 16 0.0 0.0 0.00 0.33 0.33 96 1024.8
20260501205600 16 23 1.6 3.2 0.00 0.33 0.33 95 1024.8
20260501204537 16 23 0.0 3.2 0.00 0.33 0.33 95 1024.8
20260501203535 16 23 1.6 3.2 0.00 0.33 0.33 95 1024.7